Weather History for Port Angeles, WA

Change the Weather History Date:

Saturday, July 13, 2013

  Actual Average Record
Temperature  
Mean Temperature 57 °F -  
Max Temperature 66 °F 67 °F 94 °F (1961)
Min Temperature 48 °F 51 °F 44 °F (1974)
Degree Days  
Heating Degree Days 8    
Growing Degree Days 7 (Base 50)    
Moisture  
Dew Point 48 °F    
Average Humidity 72    
Maximum Humidity 86    
Minimum Humidity 59    
Precipitation  
Precipitation 0.00 in - - ()
Sea Level Pressure  
Sea Level Pressure 30.18 in    
Wind  
Wind Speed 7 mph (WNW)    
Max Wind Speed 10 mph    
Max Gust Speed -    
Visibility 10 miles    
Events      
Averages and records for this station are not official NWS values.
T = Trace of Precipitation, MM = Missing Value Source: NWS Daily Summary

Daily Weather History Graph

Daily Weather History Graph

Search for Another Location

Airport:

Trip Planner

Search our weather history database for the weather conditions in past years. The results will help you decide how hot, cold, wet, or windy it might be!

Date:

Astronomy

Jul. 13, 2013 Rise Set
Actual Time 5:28 AM PDT 9:11 PM PDT
Civil Twilight 4:48 AM PDT 9:50 PM PDT
Nautical Twilight 3:54 AM PDT 10:44 PM PDT
Astronomical Twilight 2:36 AM PDT 12:00 AM PDT
Moon 11:19 AM PDT (7/13) 11:22 PM PDT (7/13)
Length of Visible Light 17h 02m
Length of Day
15h 42m
Waxing Crescent, 26% of the Moon is Illuminated
Jul 13
Waxing Crescent
Jul 15
First Quarter
Jul 22
Full
Jul 29
Last Quarter
Aug 6
New

Hourly Weather History & Observations

Time (PDT) Temp. Dew Point Humidity Pressure Visibility Wind Dir Wind Speed Gust Speed Precip Events Conditions
12:53 AM 48.9 °F 45.0 °F 86% 30.13 in 10.0 mi West 6.9 mph - N/A   Clear
1:53 AM 50.0 °F 46.0 °F 86% 30.14 in 10.0 mi WNW 6.9 mph - N/A   Clear
2:53 AM 50.0 °F 45.0 °F 83% 30.15 in 10.0 mi West 9.2 mph - N/A   Clear
3:53 AM 50.0 °F 45.0 °F 83% 30.15 in 10.0 mi West 9.2 mph - N/A   Clear
4:53 AM 48.9 °F 44.1 °F 83% 30.16 in 10.0 mi West 8.1 mph - N/A   Clear
5:53 AM 50.0 °F 44.1 °F 80% 30.17 in 10.0 mi WSW 8.1 mph - N/A   Clear
6:53 AM 53.1 °F 45.0 °F 74% 30.19 in 10.0 mi WSW 5.8 mph - N/A   Clear
7:53 AM 55.9 °F 46.0 °F 69% 30.20 in 10.0 mi West 4.6 mph - N/A   Clear
8:53 AM 59.0 °F 48.0 °F 67% 30.21 in 10.0 mi West 3.5 mph - N/A   Clear
9:53 AM 59.0 °F 50.0 °F 72% 30.22 in 10.0 mi North 5.8 mph - N/A   Clear
10:53 AM 60.1 °F 50.0 °F 69% 30.22 in 10.0 mi North 5.8 mph - N/A   Clear
11:53 AM 62.1 °F 50.0 °F 65% 30.21 in 10.0 mi Variable 3.5 mph - N/A   Clear
12:53 PM 64.0 °F 50.0 °F 60% 30.21 in 10.0 mi NE 5.8 mph - N/A   Clear
1:53 PM 64.9 °F 51.1 °F 61% 30.20 in 10.0 mi NE 5.8 mph - N/A   Clear
2:53 PM 66.0 °F 51.1 °F 59% 30.19 in 10.0 mi Variable 3.5 mph - N/A   Clear
3:53 PM 66.0 °F 52.0 °F 60% 30.19 in 10.0 mi Variable 4.6 mph - N/A   Clear
4:53 PM 66.0 °F 51.1 °F 59% 30.17 in 10.0 mi NW 6.9 mph - N/A   Clear
5:53 PM 63.0 °F 51.1 °F 65% 30.17 in 10.0 mi NW 9.2 mph - N/A   Clear
6:53 PM 62.1 °F 51.1 °F 67% 30.17 in 10.0 mi NW 8.1 mph - N/A   Clear
7:53 PM 61.0 °F 51.1 °F 70% 30.17 in 10.0 mi West 9.2 mph - N/A   Clear
8:53 PM 57.9 °F 48.9 °F 72% 30.17 in 10.0 mi West 10.4 mph - N/A   Clear
9:53 PM 57.0 °F 46.9 °F 69% 30.17 in 10.0 mi WNW 8.1 mph - N/A   Clear
10:53 PM 54.0 °F 48.0 °F 80% 30.16 in 10.0 mi West 6.9 mph - N/A   Clear
11:53 PM 54.0 °F 48.0 °F 80% 30.16 in 10.0 mi NW 8.1 mph - N/A   Clear